Torna al catalogo

FENGYUN 1C DEB

AttivoSSO
NORAD 33637·DEBRIS·🇨🇳 China

Lanciato May 10, 1999 da Taiyuan Satellite Launch Center

Loading…

Prossimi Passaggi (prossime 24 ore)

TLE

ObsoletoSource: Space-Track

Epoca: Aug 25, 2026, 22:44 UTC

1 33637U 99025DDW 26237.94751058  .00002783  00000-0  89240-3 0  9992
2 33637  98.4710 284.4989 0082030 106.9211 254.0989 14.38335740685194

Traccia FENGYUN 1C DEB in tempo reale con AllMySat

Download on the App Store